Preview of NWS' New Version of Forecast
This preview is not operational and should not be used for support decisions.

Regional Weather Roundup (RWR)

Issued by National Weather Service (NWS)

                            
000
ASUS43 KMKX 182311
RWRWI 

WISCONSIN REGIONAL WEATHER ROUNDUP
NATIONAL WEATHER SERVICE MILWAUKEE/SULLIVAN WI
500 PM CST MON FEB 18 2019

NOTE: "FAIR" INDICATES FEW OR NO CLOUDS BELOW 12,000 FEET WITH NO
SIGNIFICANT WEATHER AND/OR OBSTRUCTIONS TO VISIBILITY.

WIZ001-002-006>008-014>016-023>028-190000-
NORTHWEST WISCONSIN
  
CITY           SKY/WX    TMP DP  RH WIND       PRES   REMARKS
SUPERIOR ARPT  FAIR      18   0  45 CALM      30.46S                  
ASHLAND        FAIR      11   0  61 N6        30.46S WCI   1          
HAYWARD        FAIR      19   1  45 CALM      30.42R                  
SIREN          FAIR      18   3  52 SW8       30.46R WCI   7          
CUMBERLAND     FAIR      16   1  53 W6        30.42S WCI   7          
RICE LAKE      FAIR      18   3  50 CALM      30.45S                  
CHETEK         FAIR      17   4  55 CALM      30.45S                  
LADYSMITH      FAIR      19   1  45 NW6       30.43R WCI  11          
EAU CLAIRE     FAIR      17   4  56 SW6       30.46R WCI   9          
MENOMONIE      FAIR      16   0  50 W5        30.47R WCI   8          
NEW RICHMOND   FAIR      18   5  56 N3        30.47R                  
OSCEOLA        FAIR      19   6  57 NW5       30.50S WCI  12          
$$
 
WIZ003>005-009-010-017-018-190000-
NORTH CENTRAL WISCONSIN
  
CITY           SKY/WX    TMP DP  RH WIND       PRES   REMARKS
MANITOWISH WTR NOT AVBL                                               
ARBOR VITAE    FAIR      16   4  59 NW5       30.36S WCI   9          
WOODRUFF       FAIR      16   4  59 NW5       30.36S WCI   9          
RHINELANDER    FAIR      19   2  47 NW3       30.36R                  
EAGLE RIVER    FAIR      14   2  57 W3        30.35S                  
LAND O LAKES   FAIR      15   2  54 CALM      30.37S                  
PHILLIPS       FAIR      18   2  48 NW5       30.38R WCI  11          
TOMAHAWK       FAIR      17  -1  44 W3        30.38R                  
MEDFORD        FAIR      17   1  51 SW8       30.38R WCI   6          
MERRILL        FAIR      20   4  49 S7        30.39R WCI  12          
$$
 
WIZ029-030-035-036-043>047-190000-
CENTRAL WISCONSIN
  
CITY           SKY/WX    TMP DP  RH WIND       PRES   REMARKS
WAUSAU         FAIR      18   3  52 W7        30.39R WCI   9          
MOSINEE        PTCLDY    18   3  53 W7        30.41R WCI   8          
MARSHFIELD     FAIR      13  -1  54 NW6       30.40R WCI   4          
STEVENS POINT  FAIR      18   2  50 W3        30.42S                  
WAUPACA        FAIR      25   5  43 W6        30.43S WCI  18          
WAUTOMA        FAIR      21   8  57 N6        30.44S WCI  13          
WISC RAPIDS    FAIR      20   2  45 N7        30.43S WCI  11          
CAMP DOUGLAS   FAIR      20   6  56 W6        30.43R WCI  12          
$$
 
WIZ011>013-019>022-031-037>040-048>050-190000-
NORTHEAST WISCONSIN
  
CITY           SKY/WX    TMP DP  RH WIND       PRES   REMARKS
ANTIGO         FAIR      16  -1  47 W6        30.37S WCI   7          
SHAWANO        FAIR      27   6  40 SW6       30.42R WCI  20          
OCONTO         FAIR      19   7  59 S6        30.44R WCI  11          
STURGEON BAY   FAIR      23   8  52 CALM      30.45R                  
GREEN BAY      FAIR      22   6  50 SW6       30.44R WCI  14          
MANITOWOC      FAIR      22   9  57 CALM      30.46R                  
APPLETON       CLEAR     21   3  45 CALM      30.41S                  
CLINTONVILLE   FAIR      22   7  52 S5        30.43R WCI  16          
OSHKOSH        FAIR      20   8  60 CALM      30.43S                  
$$
 
WIZ032>034-041-042-053>061-190000-
SOUTHWEST WISCONSIN
  
CITY           SKY/WX    TMP DP  RH WIND       PRES   REMARKS
LA CROSSE      FAIR      21   8  57 NW6       30.47R WCI  13          
SPARTA         FAIR      22  10  59 CALM      30.46R                  
VIROQUA        FAIR      22  11  63 NW3       30.41S                  
BOSCOBEL       FAIR      26   9  48 W6        30.45S WCI  19          
PRAIRIE DU CHI FAIR      23  10  57 W3        30.46S                  
PLATTEVILLE    FAIR      23  14  68 CALM      30.44R                  
$$

WIZ056-057-062-063-064-067-068-190000-
SOUTH CENTRAL WISCONSIN
  
CITY           SKY/WX    TMP DP  RH WIND       PRES   REMARKS
REEDSBURG      FAIR      21   8  57 N6        30.44R WCI  14          
BARABOO/DELLS  FAIR      22   7  52 W6        30.43R WCI  15          
LONE ROCK      FAIR      24  10  55 CALM      30.44S                  
MINERAL POINT  FAIR      25  14  63 CALM      30.42R                  
MADISON        FAIR      23   9  55 N3        30.44R                  
MIDDLETON      FAIR      17   9  69 CALM      30.44S                  
WATERTOWN      FAIR      20  10  64 CALM      30.44S                  
MONROE         FAIR      22  10  60 MISG      30.42S                  
JANESVILLE     PTCLDY    21  10  63 NW8       30.45R WCI  12          
$$
 
WIZ051-052-058>065-066-070>072-190000-
SOUTHEAST WISCONSIN
  
CITY           SKY/WX    TMP DP  RH WIND       PRES   REMARKS
MILWAUKEE      MOCLDY    26  14  60 NE7       30.43R WCI  18          
WAUKESHA       CLEAR     21   7  53 NW8       30.44R WCI  12          
MILWAUKEE/TIMM CLEAR     25   9  50 NW7       30.45R WCI  17          
RACINE         CLOUDY    25  16  68 N5        30.45R WCI  19          
KENOSHA        FAIR      26  13  57 NW6       30.43R WCI  19          
FOND DU LAC    FAIR      21   8  57 CALM      30.44S                  
SHEBOYGAN      FAIR      20   6  55 N6        30.44R WCI  12          
WEST BEND      FAIR      21   9  58 NW6       30.44R WCI  14          
JUNEAU         FAIR      20   9  61 CALM      30.44S                  
$$

LSZ147-162-190000-
LAKE SUPERIOR
  
STATION/POSITION TIME  TEMP    WIND        PRES    WAVE
                       AIR SEA DIR/SP/G            HT/PER
                 (UTC) (F)     (DEG/KT/KT) (MB)    (FT/S)
DEVILS ISLAND    2300   14     200/  3/  4 1033.4S
SAXON HARBOR     2230   14        CALM     1031.8R
$$
 
LMZ867-665-643>646-190000-
LAKE MICHIGAN
  
STATION/POSITION TIME  TEMP    WIND        PRES    WAVE
                       AIR SEA DIR/SP/G            HT/PER
                 (UTC) (F)     (DEG/KT/KT) (MB)    (FT/S)
CHAMBERS ISLAND  2240   17      60/  6/  8 1029.8R
NORTHPORT PIER   2240   17     350/  6/  7 1030.5R
KEWAUNEE LAKESHO 2236   23      CALM  /  3 1030.0R
SHEBOYGAN LAKESH 2300   22     340/  7/  9 1032.2R
PORT WASHINGTON  2240   23      30/  6/  7 1032.2R
MILWAUKEE LAKESH 2250   25      10/  9/ 11   N/A
KENOSHA   LAKESH 2300   26      10/  9/ 11 1030.8
$$

TC  - TEMPERATURE IN CELSIUS
VSB - VISIBILITY IN STATUTE MILES
WCI - WIND CHILL INDEX
HX  - HEAT INDEX